TimePDT,TemperatureF,Dew PointF,Humidity,Sea Level PressureIn,VisibilityMPH,Wind Direction,Wind SpeedMPH,Gust SpeedMPH,PrecipitationIn,Events,Conditions,WindDirDegrees,DateUTC
12:08 AM,55.4,53.6,94,29.96,9.0,NNE,4.6,-,N/A,,Mostly Cloudy,20,2013-07-22 07:08:00
12:53 AM,55.0,53.1,93,29.97,3.0,North,6.9,-,N/A,,Overcast,350,2013-07-22 07:53:00
1:02 AM,55.4,53.6,94,29.97,2.0,North,6.9,-,N/A,,Overcast,360,2013-07-22 08:02:00
1:08 AM,55.4,53.6,94,29.97,1.0,Variable,6.9,-,N/A,,Mist,0,2013-07-22 08:08:00
1:26 AM,55.4,53.6,94,29.98,2.5,North,4.6,-,N/A,,Overcast,10,2013-07-22 08:26:00
1:38 AM,55.4,53.6,94,29.97,3.0,North,5.8,-,N/A,,Overcast,10,2013-07-22 08:38:00
1:46 AM,55.4,53.6,94,29.98,2.0,North,5.8,-,N/A,,Overcast,360,2013-07-22 08:46:00
1:53 AM,55.0,53.1,93,29.98,2.5,NNE,3.5,-,N/A,,Overcast,20,2013-07-22 08:53:00
2:01 AM,55.4,53.6,94,29.98,3.0,North,5.8,-,N/A,,Overcast,360,2013-07-22 09:01:00
2:08 AM,55.4,53.6,94,29.98,1.8,Variable,4.6,-,N/A,,Overcast,0,2013-07-22 09:08:00
2:19 AM,53.6,53.6,100,29.98,0.8,North,3.5,-,N/A,,Mist,10,2013-07-22 09:19:00
2:33 AM,53.6,53.6,100,29.98,0.5,North,5.8,-,N/A,Fog,Fog,10,2013-07-22 09:33:00
2:43 AM,53.6,53.6,100,29.98,0.8,North,3.5,-,N/A,,Mist,10,2013-07-22 09:43:00
2:53 AM,54.0,52.0,93,29.98,0.5,North,3.5,-,N/A,Fog,Fog,10,2013-07-22 09:53:00
3:02 AM,53.6,53.6,100,29.99,0.2,North,4.6,-,N/A,Fog,Fog,360,2013-07-22 10:02:00
3:44 AM,53.6,53.6,100,30.00,0.2,Calm,Calm,-,N/A,Fog,Fog,0,2013-07-22 10:44:00
3:53 AM,54.0,53.1,97,29.99,0.5,Calm,Calm,-,N/A,Fog,Fog,0,2013-07-22 10:53:00
4:01 AM,53.6,53.6,100,30.00,0.2,Calm,Calm,-,N/A,Fog,Fog,0,2013-07-22 11:01:00
4:08 AM,53.6,53.6,100,30.00,0.5,Calm,Calm,-,N/A,Fog,Fog,0,2013-07-22 11:08:00
4:34 AM,53.6,53.6,100,30.00,1.2,Calm,Calm,-,N/A,,Overcast,0,2013-07-22 11:34:00
4:53 AM,55.0,53.1,93,30.00,1.2,Calm,Calm,-,N/A,,Overcast,0,2013-07-22 11:53:00
5:23 AM,55.4,53.6,94,30.01,0.8,Calm,Calm,-,N/A,,Overcast,0,2013-07-22 12:23:00
5:30 AM,55.4,53.6,94,30.01,1.2,Calm,Calm,-,N/A,,Overcast,0,2013-07-22 12:30:00
5:53 AM,55.9,54.0,93,30.01,1.2,Calm,Calm,-,N/A,,Overcast,0,2013-07-22 12:53:00
6:15 AM,55.4,53.6,94,30.02,0.5,Calm,Calm,-,N/A,Fog,Fog,0,2013-07-22 13:15:00
6:36 AM,55.4,53.6,94,30.02,1.8,SSW,4.6,-,N/A,,Overcast,210,2013-07-22 13:36:00
6:53 AM,55.9,54.0,93,30.02,0.8,SSW,4.6,-,N/A,,Overcast,210,2013-07-22 13:53:00
7:48 AM,55.4,55.4,100,30.04,0.8,WSW,3.5,-,N/A,,Mist,240,2013-07-22 14:48:00
7:53 AM,55.9,55.0,97,30.04,0.8,SW,3.5,-,N/A,,Mist,230,2013-07-22 14:53:00
7:58 AM,55.4,55.4,100,30.04,0.2,WSW,3.5,-,N/A,Fog,Fog,240,2013-07-22 14:58:00
8:49 AM,57.2,55.4,94,30.05,2.0,Variable,3.5,-,N/A,,Overcast,0,2013-07-22 15:49:00
8:53 AM,57.0,55.0,93,30.05,2.0,SSW,3.5,-,N/A,,Overcast,210,2013-07-22 15:53:00
9:53 AM,60.1,54.0,80,30.06,2.0,Variable,4.6,-,N/A,,Haze,0,2013-07-22 16:53:00
10:00 AM,60.8,53.6,77,30.07,10.0,SW,4.6,-,N/A,,Overcast,230,2013-07-22 17:00:00
10:49 AM,62.6,53.6,72,30.08,10.0,SW,3.5,-,N/A,,Overcast,230,2013-07-22 17:49:00
10:53 AM,62.1,54.0,75,30.08,10.0,Variable,3.5,-,N/A,,Overcast,0,2013-07-22 17:53:00
11:11 AM,62.6,53.6,72,30.08,10.0,WSW,4.6,-,N/A,,Overcast,250,2013-07-22 18:11:00
11:53 AM,64.9,54.0,68,30.08,10.0,Variable,3.5,-,N/A,,Overcast,0,2013-07-22 18:53:00
11:56 AM,66.2,53.6,64,30.08,10.0,Calm,Calm,-,N/A,,Overcast,0,2013-07-22 18:56:00
12:44 PM,69.8,55.4,60,30.08,10.0,West,8.1,-,N/A,,Scattered Clouds,270,2013-07-22 19:44:00
12:53 PM,68.0,55.0,63,30.07,10.0,SW,6.9,-,N/A,,Partly Cloudy,230,2013-07-22 19:53:00
1:53 PM,71.1,55.0,57,30.07,10.0,West,8.1,-,N/A,,Clear,280,2013-07-22 20:53:00
2:53 PM,73.9,55.0,52,30.06,10.0,WSW,6.9,-,N/A,,Clear,250,2013-07-22 21:53:00
3:53 PM,73.9,55.0,52,30.05,10.0,West,6.9,-,N/A,,Clear,260,2013-07-22 22:53:00
4:53 PM,73.9,55.0,52,30.04,10.0,West,4.6,-,N/A,,Clear,280,2013-07-22 23:53:00
5:53 PM,75.9,54.0,46,30.03,10.0,NW,3.5,-,N/A,,Clear,320,2013-07-23 00:53:00
6:53 PM,73.9,55.0,52,30.02,10.0,North,3.5,-,N/A,,Clear,360,2013-07-23 01:53:00
7:53 PM,70.0,55.0,59,30.03,10.0,North,4.6,-,N/A,,Clear,350,2013-07-23 02:53:00
8:53 PM,66.9,55.0,66,30.03,10.0,North,3.5,-,N/A,,Clear,360,2013-07-23 03:53:00
9:53 PM,63.0,55.0,75,30.04,10.0,North,3.5,-,N/A,,Clear,360,2013-07-23 04:53:00
10:53 PM,59.0,54.0,83,30.06,10.0,North,4.6,-,N/A,,Clear,350,2013-07-23 05:53:00
11:53 PM,57.0,53.1,87,30.06,10.0,North,8.1,-,N/A,,Clear,360,2013-07-23 06:53:00